Skip Page Navigation
NASA JPL Caltech
NASA Logo - Jet Propulsion Laboratory + View the NASA Portal
+ Center for Near-Earth Object Studies
JPL Home Earth Solar System Stars & Galaxies Technology
JPL Solar System Dynamics
BODIES ORBITS EPHEMERIDES TOOLS PHYSICAL DATA DISCOVERY FAQ SITE MAP
IMPORTANT: The SSD Announcement email list is now available. Major changes are coming in the near future, including possible hostname and/or URL changes. To be notified of such changes, subscribe to this email list.

Please visit this page for more details.


JPL Small-Body Database Browser
Search: [ help ]  
233049 (2005 GT57)
Classification: Main-belt Asteroid          SPK-ID: 2233049
Ephemeris | Orbit Diagram | Orbital Elements | Mission Design | Physical Parameters | Discovery Circumstances | Close-Approach Data ]

[ show orbit diagram ]
Orbital Elements at Epoch 2458600.5 (2019-Apr-27.0) TDB
Reference: JPL 16 (heliocentric ecliptic J2000)
 Element Value Uncertainty (1-sigma)   Units 
e .1184051854374049 7.9683e-08  
a 3.153665862223137 3.6698e-08 au
q 2.780255470998993 2.5866e-07 au
i 8.788764809034827 7.0833e-06 deg
node 39.29511383632881 4.9029e-05 deg
peri 325.8644422433087 5.3714e-05 deg
M 27.50794793746227 2.2015e-05 deg
tp 2458444.193285216440
(2018-Nov-21.69328522)
0.00012533 TDB
period 2045.605780918631
5.60
3.5706e-05
9.776e-08
d
yr
n .1759869879905858 3.0719e-09 deg/d
Q 3.527076253447281 4.1043e-08 au
  Orbit Determination Parameters
   # obs. used (total)      327  
   data-arc span      8902 days (24.37 yr)  
   first obs. used      1994-05-04  
   last obs. used      2018-09-17  
   planetary ephem.      DE431  
   SB-pert. ephem.      SB431-N16  
   condition code      0  
   norm. resid. RMS      .635  
   source      ORB  
   producer      Otto Matic  
   solution date      2018-Oct-04 08:59:09  

Additional Information
 Earth MOID = 1.78383 au 
 Jupiter MOID = 1.94713 au 
 T_jup = 3.178 
[ show covariance matrix ]

Ephemeris | Orbit Diagram | Orbital Elements | Mission Design | Physical Parameters | Discovery Circumstances | Close-Approach Data ]

Physical Parameter Table
Parameter Symbol Value Units Sigma Reference Notes
absolute magnitude H 15.3   n/a MPO450068  
diameter diameter 6.017 km 0.440 urn:nasa:pds:neowise_diameters_albedos::2.0[mainbelt] (http://adsabs.harvard.edu/abs/2011ApJ...741...68M)  
geometric albedo albedo 0.049   0.015 urn:nasa:pds:neowise_diameters_albedos::2.0[mainbelt] (http://adsabs.harvard.edu/abs/2011ApJ...741...68M)  

233049 (2005 GT57)          Discovered 2005-Apr-06 by Mt. Lemmon Survey at Mount Lemmon
Reference: 20100228/Numbers.arcLast Updated: 2010-03-03

[ show close-approach data ]
Ephemeris | Orbit Diagram | Orbital Elements | Mission Design | Physical Parameters | Discovery Circumstances | Close-Approach Data ]
ABOUT SSD CREDITS/AWARDS PRIVACY/COPYRIGHT GLOSSARY LINKS
FirstGov 2019-Dec-12 19:56 UT
(server date/time)  
NASA Home Page
Site Manager:   Ryan S. Park
Webmaster  Alan B. Chamberlin